Regional Weather Roundup
Issued by NWS

Home | Current Version | Previous Version | Text Only | Print | Product List | Glossary On
Versions: 1 2 3 4 5 6 7 8 9 10 11 12 13 14 15 16 17 18 19 20 21 22 23 24 25 26 27 28 29 30 31 32 33 34 35 36 37 38 39 40 41 42 43 44 45 46 47 48 49 50
000
ASUS44 KJAN 011110
RWRMS

MISSISSIPPI HOURLY WEATHER ROUNDUP
NATIONAL WEATHER SERVICE JACKSON MS
600 AM CDT FRI AUG 01 2014

NOTE: "FAIR: INDICATES FEW OR NO CLOUDS BELOW 12,000 FEET WITH NO
SIGNIFICANT WEATHER AND/OR OBSTRUCTIONS TO VISIBILITY.

MSZ001>002-007>008-010>013-018>021-025>028-034>036-011200-
NORTHWEST MISSISSIPPI

CITY           SKY/WX    TMP DP  RH WIND       PRES   REMARKS
CLARKSDALE     CLOUDY    68  68 100 NE3       30.05R
CLEVELAND      CLOUDY    70  69  97 E3        30.03R
GREENWOOD      CLOUDY    69  67  93 CALM      30.03R FOG
GREENVILLE     CLOUDY    70  68  93 CALM      30.03R FOG
GRENADA        FAIR      66  64  94 CALM      30.04R
OLIVE BRANCH   PTCLDY    68  68 100 N3        30.06R
OXFORD         CLOUDY    68  66  94 CALM      30.06S
TUNICA         PTSUNNY   70  66  88 N5        30.05S
$$

MSZ003>006-009-014>017-022>024-029>033-037>039-011200-
NORTHEAST MISSISSIPPI

CITY           SKY/WX    TMP DP  RH WIND       PRES   REMARKS
BELMONT        FAIR      65  63  94 CALM      30.05S
COLUMBUS AFB   MOCLDY    67  66  97 N2        30.03R
CORINTH        PTSUNNY   66  64  94 CALM      30.05S FOG
GOLDN TRIANGLE MOCLDY    66  63  88 CALM      30.03R
STARKVILLE     FAIR      64  63  94 CALM      30.03R FOG
TUPELO         MOCLDY    69  65  86 NE5       30.03S
$$

MSZ040-058-011200-
CENTRAL MISSISSIPPI

CITY           SKY/WX    TMP DP  RH WIND       PRES   REMARKS
JACKSON INTL   CLOUDY    71  67  87 CALM      30.02R
JACKSON HAWKNS CLOUDY    72  64  76 SE3       30.02R
MERIDIAN KEY   PTCLDY    65  62  90 CALM      30.02R
MERIDIAN NAS   PTCLDY    63  61  93 CALM      30.02R
RAYMOND        PTSUNNY   70  64  83 S5        30.02R
VICKSBURG      RAIN      71  68  90 NE5       30.03R
$$

MSZ059>079-011200-
SOUTH MISSISSIPPI

CITY           SKY/WX    TMP DP  RH WIND       PRES   REMARKS
BROOKHAVEN     FAIR      70  68  94 CALM      30.04R
COLUMBIA       DRIZZLE   70  68  94 CALM      30.00R
HATTIESBURG    CLOUDY    71  69  93 N3        30.01S
MCCOMB         CLOUDY    71  67  87 CALM      30.01R
NATCHEZ        CLOUDY    70  66  88 E7        29.99F
PINE BELT      CLOUDY    70  64  83 CALM      30.02R
$$

MSZ080>082-011200-
COASTAL MISSISSIPPI

CITY           SKY/WX    TMP DP  RH WIND       PRES   REMARKS
BILOXI         CLOUDY    74  67  78 NE6       29.98R
PASCAGOULA     CLOUDY    71  69  93 CALM      29.98S
GULFPORT       CLOUDY    77  65  66 NE5       29.97S
$$


USA.gov is the U.S. government's official web portal to all federal, state and local government web resources and services.